Погода в Селихино

Россия / Хабаровский край     50°22′01″N   137°30′06″E
темп.,
°C
ветер,
м/с
пор.,
м/с
влажн.,
%
обл.,
%
осадки,
мм/ч
давл.,
гПа
погр.,
м
24 января, пн
пн2401:00−27ююв2210093 0.0 102611
04:00−27ююв229994 0.1 102619
07:00−26ююв349993 0.0 102667
10:00−23ю399697 0.1 1026281
13:00−19ююз4891100 0.0 1025482
16:00−19ююз4691100 0.1 1024424
19:00−24ю2210093 0.0 102512
22:00−24юв2210095 0.1 102617
25 января, вт
вт2501:00−25ююв2210096 0.0 102612
04:00−26ююв2210097 0.1 102611
07:00−26юв11100100 0.0 102610
10:00−22ю1298100 0.1 102667
13:00−17ююз3490100 0.0 1025394
16:00−16ююз2489100 0.1 1024375
19:00−23юв1110054 0.0 10249
22:00−25юв2110065 0.0 10249
26 января, ср
ср2601:00−26юв1110080 0.0 10249
04:00−26вюв1110089 0.0 10249
07:00−26вюв1110087 0.0 10249
10:00−22ююв0110092 0.1 102441
13:00−17зюз119399 0.0 1023245
16:00−17з119373 0.1 1023138
19:00−24в1110054 0.0 10249
22:00−24юв1110088 0.0 10249
27 января, чт
чт2701:00−24юв11100100 0.0 10259
04:00−24ююв11100100 0.1 102510
07:00−24ю11100100 0.1 102512
10:00−21ююз2397100 0.1 1025154
13:00−17ююз3489100 0.2 1023478
16:00−17ююз3589100 0.3 1022529
19:00−19ю2498100 0.1 1022105
22:00−20ю3697100 0.3 1020184
28 января, пт
пт2801:00−19ю4996100 0.1 1018465
04:00−19ю3997100 0.4 1017533
07:00−19ю2598100 0.4 1015322
10:00−18ююз2693100 0.9 1014591
13:00−18ююз3487100 0.3 1013733
16:00−18зюз1186100 0.5 1012448
19:00−21ююз00100100 0.1 10139
22:00−23ююв1110078 0.1 10139